#timestamp,LO_Frequency,Hit,StdDev 
1592550015.1,286046998.2,N
1592550016.0,286046998.2,N
1592550035.8,286046999.4,N
1592550055.7,286046998.4,N
1592550075.5,286046998.2,N
1592550095.3,286046998.1,N
1592550115.2,286047001.2,N
1592550135.0,286046998.6,N
1592550135.9,286046998.6,N
1592550155.7,286047000.7,N
1592550175.6,286047000.7,N
1592550195.4,286046998.6,N
1592550215.3,286046998.1,N
1592550235.1,286047002.2,N
1592550255.8,286047001.8,N
1592550275.7,286047004.5,Y
1592550295.5,286047004.1,P
1592550315.4,286047004.3,N
1592550335.2,286047003.3,N
1592550355.1,286047005.1,N
1592550356.0,286047005.1,N
1592550375.8,286047001.3,N
1592550395.7,286047002.5,N
1592550415.5,286047004.8,N
1592550435.4,286047005.6,N
1592550455.2,286047005.2,N
1592550475.0,286047005.7,Y
1592550475.9,286047005.7,P
1592550495.8,286047001.0,N
1592550515.6,286046999.7,N
1592550535.4,286047003.9,N
1592550555.3,286047002.7,N
1592550575.1,286046998.9,N
1592550595.9,286047001.5,N
1592550615.7,286046999.7,N
1592550635.5,286047001.0,N
1592550655.4,286046996.5,N
1592550675.2,286046998.8,N
1592550695.1,286046997.8,N
1592550696.0,286046997.8,N
1592550715.8,286046995.0,N
1592550735.6,286046999.5,N
1592550755.5,286047000.0,N
1592550775.3,286046999.2,N
1592550795.2,286046998.2,N
1592550815.9,286047004.1,N
1592550835.7,286047000.2,N
1592550855.6,286047002.6,N
1592550875.4,286047003.5,N
1592550895.2,286047000.0,N
1592550915.1,286046998.7,N
1592550916.0,286046998.7,N
1592550935.8,286046997.3,N
1592550955.7,286047000.0,N
1592550975.5,286047002.5,N
1592550995.3,286047001.7,N
1592551015.2,286047001.1,N
1592551035.0,286046999.1,N
1592551035.9,286046999.1,N
1592551055.8,286046997.6,N
1592551075.6,286046999.2,N
1592551095.4,286046998.6,N
1592551115.3,286047000.7,N
1592551135.1,286046998.2,N
1592551155.9,286046999.3,N
1592551175.7,286046996.5,N
1592551195.5,286046997.4,N
1592551215.4,286046997.9,N
1592551235.2,286046997.4,N
1592551255.0,286046997.1,N
1592551255.9,286046997.1,N
1592551275.8,286046997.6,N
1592551295.6,286046996.8,N
1592551315.5,286046997.4,N
1592551335.3,286046993.6,Y
1592551355.1,286046997.6,P
1592551375.9,286046995.8,P
1592551395.7,286046993.7,P
1592551415.6,286046993.5,Y
1592551435.4,286046999.2,P
1592551455.2,286046996.9,N
1592551475.1,286046999.2,N
1592551476.0,286046999.2,N
1592551495.8,286046996.5,N
1592551515.6,286046998.1,N
1592551535.5,286046998.7,N
1592551555.3,286046998.7,N
1592551575.2,286046996.8,N
1592551595.9,286046996.8,N
1592551615.7,286046997.0,N
1592551635.6,286046999.6,N
1592551655.4,286046996.6,N
1592551675.3,286046998.9,N
1592551695.1,286046998.4,N
1592551696.0,286046998.4,N
1592551715.8,286046999.3,N
1592551735.7,286046999.5,N
1592551755.5,286046998.4,N
1592551775.3,286046998.7,N
1592551795.2,286046999.1,N
1592551815.0,286046999.5,N
1592551815.9,286046999.5,N
1592551835.8,286047000.8,N
1592551855.6,286047001.1,N
1592551875.4,286047001.0,N
1592551895.3,286046998.8,N
1592551915.1,286046998.6,N
1592551935.9,286046999.1,N
1592551955.7,286046999.0,N
1592551975.5,286046999.6,N
1592551995.4,286046998.3,N
1592552015.2,286046998.8,N
1592552035.0,286047001.1,N
1592552035.9,286047001.1,N
1592552055.8,286046998.2,N
1592552075.6,286046998.2,N
1592552095.5,286046998.8,N
1592552115.3,286046999.0,N
1592552135.1,286046999.3,N
1592552155.9,286046998.9,N
1592552175.7,286046999.4,N
1592552195.6,286046998.7,N
1592552215.4,286046998.8,N
1592552235.2,286046999.2,N
1592552255.1,286046999.0,N
1592552256.0,286046999.0,N
1592552275.8,286046999.6,N
1592552295.7,286046997.7,N
1592552315.5,286046996.8,Y
1592552335.3,286046999.6,P
1592552355.2,286046997.1,P
1592552375.0,286046996.8,N
1592552375.9,286046996.8,N
1592552395.8,286046998.4,N
1592552415.6,286046999.6,N
1592552435.4,286046996.6,N
1592552455.3,286046997.1,N
1592552475.1,286046996.7,N
1592552495.9,286046999.2,N
1592552515.7,286046997.4,N
1592552535.5,286046997.3,N
1592552555.4,286046995.4,Y
1592552575.2,286046996.6,P
1592552595.0,286046998.6,N
1592552596.0,286046998.6,N
1592552615.8,286046998.4,N
1592552635.6,286046998.3,N
1592552655.5,286046998.2,N
1592552675.3,286047001.3,N
1592552695.1,286047000.1,N
1592552715.9,286047000.7,N
1592552735.7,286046998.3,N
1592552755.6,286046998.2,N
1592552775.4,286046998.8,N
1592552795.3,286046996.6,N
1592552815.1,286046998.7,N
1592552816.0,286046998.7,N
1592552835.8,286046998.1,N
1592552855.7,286046998.3,N
1592552875.5,286047000.3,N
1592552895.3,286046998.2,N
1592552915.2,286047000.6,N
1592552935.0,286046998.7,N
1592552935.9,286046998.7,N
1592552955.8,286046998.2,N
1592552975.6,286047000.6,N
1592552995.5,286046998.5,N
1592553015.3,286047000.3,N
1592553035.1,286046999.9,N
1592553055.9,286047000.9,N
1592553075.7,286047000.8,N
1592553095.6,286047002.7,N
1592553115.4,286047000.9,N
1592553135.2,286046998.3,N
1592553155.1,286046998.5,N
1592553156.0,286046998.5,N
1592553175.8,286047001.2,N
1592553195.7,286047000.4,N
1592553215.5,286047002.8,N
1592553235.3,286047000.7,N
1592553255.2,286046998.3,N
1592553275.0,286046998.5,N
1592553275.9,286046998.5,N
1592553295.8,286047001.2,N
1592553315.6,286046999.4,N
1592553335.4,286046998.3,N
1592553355.3,286046998.1,N
1592553375.1,286046999.2,N
1592553395.9,286046998.4,N
1592553415.7,286046998.2,N
1592553435.5,286046998.2,N
1592553455.4,286046998.2,N
1592553475.2,286047000.7,N
1592553495.0,286047000.8,N
1592553495.9,286047000.8,N
1592553515.8,286047001.2,N
1592553535.6,286046998.8,N
1592553555.5,286046998.1,N
1592553575.3,286047000.0,N
1592553595.1,286047000.6,N
